Regional Weather Roundup
Issued by NWS State College, PA

Current Version | Previous Version | Text Only | Print | Product List | Glossary On
Versions: 1 2 3 4 5 6 7 8 9 10 11 12 13 14 15 16 17 18 19 20 21 22 23 24 25 26 27 28 29 30 31 32 33 34 35 36 37 38 39 40 41 42 43 44 45 46 47 48 49 50
000
ASUS41 KCTP 291010
RWRCTP

REGIONAL WEATHER ROUNDUP
NATIONAL WEATHER SERVICE STATE COLLEGE PA
600 AM EDT THU SEP 29 2016

Note: "fair" indicates few or no clouds below 12,000 feet with no
significant weather and/or obstructions to visibility.

* = STATION THAT DOES NOT REPORT PRECIPITATION /E.G. RAIN...SNOW...ETC/
    THUNDER OR FOG.

PAZ002>004-007>009-013>016-020>023-029>032-291100-
WESTERN PENNSYLVANIA

CITY           SKY/WX    TMP DP  RH WIND       PRES   REMARKS
ERIE           CLOUDY    65  56  72 E7        30.09R
MEADVILLE      CLOUDY    61  54  77 E8G17     30.08R
FRANKLIN*        N/A     57  54  88 E12G23    30.10R
NEW CASTLE     CLOUDY    61  59  93 E10       30.06R
BEAVER COUNTY  NOT AVBL
BUTLER*        MOCLDY    59  55  88 E13       30.09R
PITTSBURGH INT DRIZZLE   56  56 100 VRB3      30.05R FOG
PITTSBURGH     CLOUDY    58  56  93 CALM      30.05R FOG
INDIANA*       CLOUDY    59  57  94 E8        30.13R FOG
LATROBE        LGT RAIN  59  59 100 N3        30.07R
WASHINGTON CO* CLOUDY    55  52  88 E5        30.05R
$$

PAZ004>006-010>012-017>019-024>028-033>037-041-042-045-046-049>053-291100-
CENTRAL PENNSYLVANIA

CITY           SKY/WX    TMP DP  RH WIND       PRES   REMARKS
BRADFORD       CLOUDY    56  54  93 SE15      30.17R
DUBOIS         LGT RAIN  56  53  90 E9G21     30.14R
CLEARFIELD     LGT RAIN  56  56 100 E10       30.17R
JOHNSTOWN      CLOUDY    55  55 100 E10       30.09R
ALTOONA        RAIN      55  55 100 NE9G16    30.12F
STATE COLLEGE  RAIN      55  54  94 NE12G17   30.16F
WILLIAMSPORT   LGT RAIN  57  56  96 CALM      30.20F
SELINSGROVE    LGT RAIN  57  57 100 N6        30.18S
FT INDIANTOWN  NOT AVBL
CAPITAL CITY   RAIN      60  56  86 E7        30.14R
HARRISBURG     RAIN      59  58  96 E18       30.13R
YORK           LGT RAIN  61  60  97 E13G23    30.12R
$$

PAZ038>040-043-044-047-048-054-055-060>062-067>071-291100-
EASTERN PENNSYLVANIA

CITY           SKY/WX    TMP DP  RH WIND       PRES   REMARKS
SCRANTON       LGT RAIN  55  52  89 NE9       30.26R
MOUNT POCONO   LGT RAIN  49  48  97 E15       30.29R
ALLENTOWN      LGT RAIN  57  54  89 NE15      30.24F
QUAKERTOWN*    CLOUDY    55  55 100 NE9G17    30.24S
READING        RAIN      58  55  90 E13       30.20S
LANCASTER      RAIN      59  58  96 E15G26    30.15F
COATESVILLE    LGT RAIN  59  57  94 E14G31    30.20R
POTTSTOWN      LGT RAIN  57  56  96 NE9G18    30.24R
BLUE BELL      CLOUDY    55  55 100 NE9G20    30.21R
DOYLESTOWN     LGT RAIN  58  57  97 VRB6      30.23S
WILLOW GROVE   NOT AVBL
NORTH PHILA    LGT RAIN  62  60  93 NE17      30.23S
PHILADELPHIA   LGT RAIN  62  60  93 NE14G24   30.19S
$$




USA.gov is the U.S. government's official web portal to all federal, state and local government web resources and services.